{"data":{"norad_id":62520,"intl_designator":"2025-004K","name":"STARLINK-11482 [DTC]","alt_names":[],"object_type":"PAYLOAD","status":"ACTIVE","operator":null,"country":"US","launch_date":"2025-01-08","launch_site_code":"AFETR","launch_vehicle":null,"mission":null,"orbit_class":"UNKNOWN","rcs_meters":null,"size_class":null,"mass_kg":null,"dimensions":null,"purposes":["comms"],"wikipedia_slug":null,"has_3d_model":false,"image_url":null,"decayed_at":null,"tle_current":{"epoch":"2026-05-24T20:55:13.791360Z","epoch_age_seconds":96837,"freshness":"FRESH","line1":"1 62520U 25004K   26144.87168740  .00190549  00000+0  14488-2 0  9998","line2":"2 62520  43.0000 331.1995 0003375 268.4763  91.5718 15.70933055 79194","mean_motion":15.70933055,"eccentricity":0.0003375,"inclination_deg":43,"raan_deg":331.1995,"arg_perigee_deg":268.4763,"mean_anomaly_deg":91.5718,"bstar":0.0014488,"rev_number":7919,"period_min":91.665268320425,"perigee_km":353.95625753129,"apogee_km":358.5019546529,"semimajor_km":6734.3661060921,"source":"CELESTRAK","updated_at":"2026-05-25T13:38:19.703654Z"}}}